[[{"header":{"parameterUnit":"m.s-1","parameterCategory":1,"la1":30.2991,"la2":30.254,"lo1":-89.0895,"lo2":-89.0444,"dy":0.0017,"dx":0.0017,"nx":28,"ny":28,"refTime":"2025-07-16T21:00:00:Z","depth":0,"parameterNumber":2,"parameterNumberName":"U-component_of_WINDS"},"data":[0,0,0,0,0,0,0,0,0,0,0,0,0,0,0,0,0,0,0,0,0,0,0,0,0,0,0,0,0,0,0,0,0,0,0,0,0,0,0,0,0,0,0,0,0,0,0,0,0,0,0,0,0,0,0,0,0,0,5.5404,5.5404,0,5.5454,5.5454,5.5455,5.5344,5.5341,5.5337,5.5334,5.5382,5.5386,5.5391,0,0,0,0,0,0,0,0,0,0,0,0,0,5.5208,5.5212,5.5403,5.5404,5.5405,5.5454,5.5454,5.5455,5.5345,5.5341,5.5336,5.5332,5.5381,5.5386,5.5391,0,0,0,0,0,0,0,0,0,0,0,0,0,5.5279,5.5214,5.5403,5.5356,5.5352,5.5453,5.5454,5.5455,5.5346,5.5341,5.5335,5.533,5.5379,5.5385,5.5392,5.5541,0,0,5.5413,5.5416,0,0,0,0,0,0,0,0,5.5275,5.5286,5.5362,5.5359,5.5355,5.5387,5.5403,5.5484,5.5347,5.5348,5.5334,5.5328,5.5388,5.5394,5.5415,5.5543,5.5545,5.5414,5.5418,5.5421,5.5423,0,0,0,0,0,0,0,5.5271,5.5284,5.5423,5.5363,5.5359,5.5331,5.5335,5.5418,5.5397,5.5348,5.534,5.5347,5.5385,5.5408,5.5415,5.5546,5.5414,5.542,5.5424,5.5427,5.5796,5.5802,0,0,0,0,0,0,5.5272,5.528,5.5421,5.5425,5.5302,5.5338,5.5343,5.5382,5.5396,5.5393,5.5352,5.5342,5.5399,5.5407,5.5416,5.5589,5.5421,5.5427,5.5431,5.5791,5.5797,5.5804,0,0,0,0,0,0,5.5268,5.5286,5.5419,5.535,5.5365,5.5348,5.5392,5.5386,5.5409,5.5399,5.5394,5.538,5.5395,5.5407,5.551,5.5589,5.543,5.5437,5.5784,5.5793,5.5801,5.5937,0,0,0,0,0,0,5.5263,5.5285,5.5343,5.5353,5.5369,5.5515,5.5397,5.5391,5.5422,5.541,5.5424,5.5421,5.5392,5.5501,5.5517,5.5596,5.5442,5.5777,5.5788,5.5798,5.5925,5.5949,5.597,0,0,0,0,0,5.5257,5.5379,5.5346,5.5364,5.5441,5.5519,5.5529,5.5493,5.5429,5.5485,5.5478,5.5421,5.5579,5.5512,5.553,5.5612,5.5771,5.5785,5.5797,5.5916,5.5945,5.5969,0,0,0,0,0,0,5.5377,5.5379,5.5343,5.5472,5.5497,5.5501,5.5571,5.5526,5.5568,5.5554,5.5508,5.5512,5.5624,5.5628,5.5555,5.5755,5.5664,5.5681,5.5748,5.5775,5.5797,5.5792,5.5448,0,0,0,0,0,5.5419,5.5484,5.5482,5.5596,5.561,5.5589,5.5622,5.5592,5.5615,5.5625,5.5625,5.5649,5.5703,5.574,5.579,5.5926,5.5926,5.5991,5.6013,5.6032,5.6046,5.6116,5.6144,5.5846,5.5846,5.5845,0,0,5.5506,5.5515,5.5559,5.562,5.5636,5.5702,5.5598,5.5673,5.5721,5.5635,5.5733,5.5735,5.5758,5.5878,5.5931,5.5885,5.6129,5.6048,5.6063,5.6067,5.6132,5.616,5.6185,5.5854,5.5853,5.5851,0,0,5.5697,5.5712,5.5807,5.5825,5.585,5.5835,5.5858,5.5869,5.5867,5.5965,5.5901,5.5958,5.6053,5.6071,5.6093,5.6291,5.6238,5.6309,5.6423,5.6492,5.6515,5.6536,5.6604,5.6629,5.6324,5.6324,5.6324,0,5.5801,5.59,5.5862,5.5941,5.5969,5.5896,5.5991,5.601,5.605,5.607,5.6018,5.6135,5.6146,5.6268,5.6317,5.6338,5.6361,5.6305,5.6516,5.6536,5.6554,5.6618,5.6644,5.6332,5.6331,5.633,5.633,0,5.6025,5.6094,5.6168,5.6209,5.6246,5.6333,5.6306,5.6348,5.6316,5.6306,5.6405,5.6415,5.6465,5.6492,5.6462,5.661,5.658,5.6524,5.643,5.6591,5.6651,5.6675,5.6344,5.6341,5.6338,5.6336,0,0,5.6292,5.6311,5.6338,5.6355,5.6377,5.6429,5.6513,5.6562,5.6597,5.6627,5.6694,5.6776,5.6723,5.6748,5.6719,5.678,5.6933,5.6714,5.6714,5.6752,5.7094,5.7135,5.7164,5.6899,5.6904,5.6908,5.7091,0,5.6479,5.6622,5.659,5.6731,5.6793,5.6724,5.6796,5.6817,5.681,5.6861,5.6852,5.6911,5.6838,5.6852,5.6909,5.6902,5.7,5.6889,5.6958,5.6961,5.6952,5.7195,5.7239,5.7411,5.7114,5.7118,5.7121,0,5.6715,5.6755,5.6902,5.6913,5.6937,5.7003,5.7044,5.7095,5.7116,5.7107,5.7135,5.7093,5.7173,5.7082,5.719,5.7115,5.7142,5.7143,5.7149,5.7151,5.7049,5.7202,5.7466,5.7491,5.7158,5.7155,5.7152,0,5.6892,5.6982,5.7081,5.7098,5.7114,5.7161,5.7169,5.7186,5.7217,5.7253,5.7272,5.7318,5.7342,5.7377,5.7349,5.7285,5.7461,5.7367,5.7453,5.7454,5.7491,5.7488,5.776,5.7514,5.7513,5.7513,5.7512,0,5.7102,5.7194,5.716,5.722,5.7321,5.7283,5.7383,5.7383,5.7398,5.7456,5.7401,5.7456,5.7416,5.7468,5.7446,5.7538,5.755,5.7543,5.7535,5.7546,5.7547,5.7561,5.7547,5.7519,5.7518,5.7517,5.7515,0,5.7314,5.7296,5.7399,5.7406,5.7409,5.7483,5.7488,5.7543,5.7532,5.7606,5.7622,5.7605,5.7662,5.7638,5.7699,5.7684,5.7801,5.7779,5.7794,5.7787,5.7873,5.7864,5.816,5.8196,5.793,5.7933,5.7935,0,5.7448,5.7517,5.7532,5.7567,5.758,5.7638,5.7669,5.7635,5.767,5.7699,5.7751,5.7804,5.7844,5.794,5.7932,5.7978,5.7954,5.8055,5.7961,5.7969,5.7952,5.7947,5.7952,5.8073,5.8076,5.8079,5.8081,0,5.7687,5.7674,5.7722,5.7768,5.7807,5.7841,5.787,5.7902,5.7868,5.791,5.7969,5.8001,5.8063,5.8116,5.8156,5.8163,5.8116,5.8111,5.8133,5.8143,5.8147,5.8143,5.7842,5.8104,5.8101,5.81,5.8099,5.8098,5.7862,5.7919,5.7938,5.7993,5.8011,5.8039,5.8091,5.8087,5.8136,5.8185,5.8162,5.8229,5.8247,5.8297,5.831,5.8362,5.8322,5.8354,5.8361,5.8369,5.8379,5.8142,5.8369,5.8369,5.8368,5.8367,5.8367,0,5.8094,5.8103,5.8155,5.8197,5.824,5.8194,5.8223,5.8262,5.8322,5.8344,5.8385,5.8452,5.8503,5.8499,5.8545,5.8587,5.8566,5.86,5.8595,5.8597,5.8414,5.8389,5.8616,5.8616,5.8616,5.8616,5.8615,5.8615,5.822,5.8314,5.8304,5.8405,5.8413,5.848,5.85,5.8525,5.8542,5.8619,5.8661,5.8659,5.867,5.8716,5.876,5.8758,5.8776,5.8817,5.8806,5.8635,5.861,5.8586,5.8562,5.8822,5.8822,5.8984,5.8986,5.8987]},{"header":{"parameterUnit":"m.s-1","parameterCategory":1,"la1":30.2991,"la2":30.254,"lo1":-89.0895,"lo2":-89.0444,"dy":0.0017,"dx":0.0017,"nx":28,"ny":28,"refTime":"2025-07-16T21:00:00:Z","depth":0,"parameterNumber":3,"parameterNumberName":"V-component_of_WINDS"},"data":[0,0,0,0,0,0,0,0,0,0,0,0,0,0,0,0,0,0,0,0,0,0,0,0,0,0,0,0,0,0,0,0,0,0,0,0,0,0,0,0,0,0,0,0,0,0,0,0,0,0,0,0,0,0,0,0,0,0,3.4947,3.4947,0,3.5007,3.5008,3.5009,3.4954,3.4951,3.4949,3.4947,3.5006,3.501,3.5013,0,0,0,0,0,0,0,0,0,0,0,0,0,3.4781,3.4784,3.4947,3.4947,3.4948,3.5007,3.5008,3.5009,3.4954,3.4951,3.4949,3.4946,3.5005,3.5009,3.5014,0,0,0,0,0,0,0,0,0,0,0,0,0,3.4848,3.4785,3.4946,3.4928,3.4927,3.5007,3.5008,3.5009,3.4955,3.4951,3.4948,3.4945,3.5003,3.5009,3.5014,3.5115,0,0,3.5031,3.5033,0,0,0,0,0,0,0,0,3.4845,3.4854,3.493,3.4929,3.4928,3.4969,3.4971,3.5044,3.4955,3.4944,3.4947,3.4943,3.4996,3.5002,3.5021,3.5117,3.512,3.5031,3.5035,3.5037,3.5039,0,0,0,0,0,0,0,3.484,3.4851,3.497,3.4931,3.493,3.4916,3.4922,3.4985,3.4988,3.4945,3.4941,3.4949,3.4995,3.5016,3.5022,3.5121,3.5031,3.5036,3.5039,3.5042,3.5303,3.5307,0,0,0,0,0,0,3.4838,3.4848,3.4968,3.4972,3.4877,3.4922,3.4928,3.496,3.4987,3.4988,3.4952,3.4946,3.5008,3.5015,3.5024,3.5143,3.5037,3.5042,3.5045,3.5299,3.5304,3.5308,0,0,0,0,0,0,3.4834,3.4849,3.4966,3.4909,3.4923,3.4928,3.4964,3.4963,3.4983,3.4993,3.4993,3.4972,3.5006,3.5016,3.5093,3.5145,3.5045,3.505,3.5295,3.5301,3.5306,3.5384,0,0,0,0,0,0,3.483,3.4848,3.4887,3.491,3.4926,3.5035,3.4967,3.4966,3.4993,3.4986,3.5012,3.5013,3.5004,3.5085,3.5098,3.515,3.5054,3.529,3.5298,3.5304,3.5377,3.5391,3.5404,0,0,0,0,0,3.4824,3.4906,3.4889,3.4904,3.4975,3.5038,3.5047,3.5036,3.4997,3.5036,3.5042,3.5012,3.5137,3.5093,3.5108,3.5162,3.5287,3.5296,3.5304,3.5371,3.5388,3.5404,0,0,0,0,0,0,3.4887,3.4908,3.489,3.4982,3.5009,3.5029,3.5077,3.5055,3.5093,3.5085,3.5069,3.5075,3.5156,3.5167,3.5118,3.5261,3.5206,3.5217,3.5252,3.5269,3.5282,3.5278,3.5058,0,0,0,0,0,3.4911,3.4962,3.4978,3.5057,3.5072,3.5073,3.5099,3.5089,3.5116,3.5126,3.5138,3.5164,3.5209,3.5239,3.5281,3.5378,3.5383,3.5423,3.5436,3.5447,3.5458,3.551,3.5528,3.5335,3.5335,3.5335,0,0,3.4962,3.498,3.5013,3.507,3.509,3.5142,3.5082,3.5139,3.5178,3.5134,3.5208,3.5218,3.5246,3.5333,3.5372,3.5345,3.5512,3.5458,3.5467,3.5471,3.552,3.5538,3.5554,3.5341,3.534,3.5339,0,0,3.5082,3.5101,3.517,3.5191,3.5222,3.5222,3.5239,3.5262,3.5267,3.5341,3.531,3.5355,3.5433,3.5455,3.5476,3.5605,3.5578,3.5619,3.569,3.5741,3.5756,3.5769,3.5816,3.5833,3.5629,3.5629,3.5629,0,3.5142,3.522,3.5207,3.5268,3.5294,3.5258,3.5327,3.5348,3.5391,3.5409,3.5378,3.5476,3.5492,3.5584,3.5616,3.5634,3.5652,3.5616,3.5755,3.5768,3.5781,3.5825,3.5842,3.5634,3.5633,3.5633,3.5632,0,3.5291,3.5346,3.5397,3.5441,3.5473,3.5537,3.5534,3.5567,3.5554,3.5557,3.5633,3.5652,3.5697,3.5718,3.5705,3.5809,3.579,3.5758,3.5701,3.5804,3.5845,3.5862,3.5641,3.5639,3.5637,3.5636,0,0,3.5452,3.5489,3.5508,3.5527,3.5559,3.5601,3.5663,3.5709,3.5738,3.5769,3.5821,3.5888,3.5858,3.5882,3.5871,3.5916,3.6018,3.5877,3.5878,3.5903,3.6133,3.6158,3.6178,3.6,3.6003,3.6006,3.6131,0,3.5573,3.5683,3.5674,3.5778,3.5828,3.5796,3.585,3.5875,3.588,3.5923,3.5927,3.5976,3.5932,3.5947,3.599,3.5996,3.6063,3.5987,3.6048,3.605,3.6042,3.6199,3.6225,3.6342,3.6147,3.6149,3.6151,0,3.5729,3.5767,3.5876,3.5901,3.5922,3.5971,3.6013,3.6054,3.6082,3.6082,3.611,3.6092,3.6154,3.6097,3.6182,3.613,3.6155,3.6162,3.6166,3.6171,3.6107,3.6209,3.6379,3.6397,3.6176,3.6174,3.6172,0,3.5835,3.5913,3.5989,3.6007,3.6038,3.6073,3.6088,3.6112,3.6141,3.6176,3.6195,3.6237,3.626,3.6293,3.6286,3.6245,3.6374,3.6316,3.6375,3.6376,3.6404,3.6402,3.6581,3.642,3.6419,3.6419,3.6419,0,3.5972,3.604,3.6038,3.6084,3.6159,3.6148,3.6223,3.6233,3.6255,3.6303,3.6277,3.6321,3.631,3.6354,3.6349,3.6421,3.6431,3.6433,3.6431,3.6436,3.6436,3.6451,3.6443,3.6424,3.6423,3.6422,3.6421,0,3.6103,3.6104,3.6185,3.6208,3.6216,3.627,3.629,3.6333,3.6337,3.6397,3.641,3.6415,3.6466,3.6463,3.6519,3.6516,3.6605,3.6593,3.6596,3.6594,3.6654,3.6648,3.6849,3.6875,3.6697,3.6698,3.67,0,3.619,3.6242,3.6272,3.6302,3.632,3.6369,3.6398,3.6389,3.6421,3.6457,3.6496,3.6545,3.6583,3.6666,3.6674,3.6717,3.6706,3.6774,3.6712,3.6716,3.6708,3.6705,3.671,3.6786,3.6788,3.6789,3.679,0,3.6345,3.6343,3.6387,3.6432,3.6468,3.6502,3.6533,3.6559,3.6553,3.659,3.6643,3.6673,3.6732,3.678,3.6822,3.6835,3.6812,3.681,3.6826,3.6831,3.6831,3.6833,3.6629,3.6805,3.6804,3.6803,3.6802,3.6801,3.6457,3.6502,3.653,3.658,3.6603,3.6633,3.6676,3.6685,3.6729,3.6777,3.6769,3.6828,3.6854,3.6908,3.6926,3.6971,3.6947,3.697,3.6976,3.6982,3.6989,3.6824,3.6978,3.6978,3.6978,3.6977,3.6977,0,3.661,3.6627,3.6673,3.6718,3.6758,3.6734,3.6767,3.6802,3.6854,3.6882,3.6921,3.6981,3.7028,3.7041,3.7086,3.712,3.711,3.7132,3.7129,3.7133,3.7008,3.699,3.7139,3.7139,3.7139,3.7139,3.7139,3.7139,3.6694,3.6769,3.6771,3.6858,3.6874,3.6932,3.6954,3.6981,3.7003,3.7073,3.7112,3.712,3.7141,3.7188,3.723,3.7233,3.7251,3.7277,3.7275,3.7158,3.7142,3.7126,3.7109,3.7281,3.7281,3.7396,3.7397,3.7398]}]]